Temperature
13 12 13 12 12 12 12 12 12 12 12 12 12 12 12 12 12 12 12 12 12 12 12 12 13 13 13 13 13 13 13 13 13 13 13 13 13 12 12 12 12 12 12
12 12 12 12 12 12 12 12 12 12 12 12 12 12 12 12 12 12 12 12 12 12 12 12 12 12 12 12 12 12 12 12 12 12 12 12 12 12 12 12 12 12 12
12 12 12 12 12 12 11 11 11 11 11 11 11 11 11 11 11 11 11 12 12 12 12 12 12 12 12 12 12 12 12 12 12 12 12 12 12 12 12 12 12 12 12
11 11 11 11 11 11 11 11 11 11 11 11 11 11 11 11 11 11 11 11 11 11 11 11 11 11 11 11 11 11 11 11 12 12 12 12 11 11 11 11 11 11 11
11 11 11 11 11 11 11 11 11 10 10 10 10 11 11 11 10 10 10 10 10 10 10 11 11 11 11 11 11 11 11 11 11 11 11 11 11 11 11 11 11 10 10
11 11 10 10 10 10 10 10 10 10 10 10 10 10 10 10 10 10 10 10 10 10 10 10 10 10 10 10 10 10 10 10 10 10 10 11 11 11 10 10 10 10 10
10 10 10 10 10 10 10 10 10 10 10 9 9 9 9 9 9 9 9 9 9 9 9 9 9 9 9 9 9 10 10 10 10 10 10 10 10 10 10 10 10 10 10
10 10 10 9 9 9 9 9 9 9 9 9 8 8 8 8 8 9 9 8 8 8 8 8 9 9 9 9 9 9 9 9 9 9 9 9 9 9 9 9 9 9 9
9 9 9 9 9 9 9 8 8 8 8 8 8 7 7 7 7 7 8 8 8 8 8 8 8 8 8 8 8 8 8 8 8 9 9 8 8 9 8 9 9 9 9
9 9 8 8 8 8 8 8 8 8 7 7 7 7 6 6 6 6 7 7 7 7 7 7 7 7 7 7 7 7 8 8 8 8 8 8 8 8 8 8 8 8 8
8 8 8 8 8 7 7 7 7 7 7 7 7 6 6 6 6 5 5 6 6 6 6 6 6 6 6 7 7 7 7 7 7 7 7 7 7 7 8 8 8 8 8
8 8 7 7 7 7 7 7 7 6 6 6 6 6 6 5 5 5 5 5 5 6 6 6 6 6 6 6 6 6 6 6 6 7 7 7 7 7 7 7 7 8 8
7 7 7 7 7 7 7 6 6 6 6 6 5 5 5 5 5 5 4 4 4 5 5 5 5 5 5 5 5 5 5 5 6 6 6 6 6 6 6 7 7 7 7
6 6 6 6 6 6 6 6 6 6 5 5 5 5 5 5 4 4 4 4 4 4 4 4 5 5 5 5 5 5 5 5 5 5 5 6 6 6 6 6 6 6 6
6 6 6 6 6 6 6 6 5 5 5 5 4 4 4 4 4 4 4 3 3 3 3 4 4 4 4 4 4 4 4 4 4 4 5 5 5 5 5 5 5 6 6
6 5 5 5 5 5 5 5 5 4 4 4 4 4 3 3 3 3 3 3 3 2 2 3 3 3 3 3 3 3 4 4 4 4 4 4 4 4 4 5 5 5 5
5 5 5 5 5 5 4 4 4 4 4 4 3 3 3 3 3 3 3 3 2 2 2 2 3 3 3 3 3 3 3 3 3 3 3 3 3 4 4 4 4 4 4
5 5 4 4 4 4 4 4 4 3 3 3 3 2 2 2 2 2 2 2 2 2 1 1 2 2 2 2 2 2 2 3 3 3 3 3 3 3 3 3 4 4 4
4 4 4 4 4 3 3 3 3 3 3 2 2 2 2 2 2 2 2 1 1 1 1 1 1 1 1 1 2 2 2 2 2 2 2 2 2 3 3 3 3 3 3
4 4 4 3 3 3 3 2 2 2 2 2 2 1 1 1 1 1 1 1 1 1 1 1 1 1 1 1 1 1 1 2 2 2 2 2 2 2 2 2 2 2 2
3 3 3 3 3 2 2 2 2 1 1 1 1 1 1 1 1 0 0 0 0 -0 -0 -0 -0 -0 -0 -0 -0 -0 0 1 1 1 1 2 2 2 2 2 2 2 2
3 3 2 2 2 2 2 1 1 1 1 1 1 1 1 0 0 0 -0 -0 -1 -1 -1 -1 -1 -1 -1 -1 -1 -1 -1 -1 -0 0 0 1 1 1 1 1 1 1 1
2 2 2 2 2 2 1 1 1 0 0 0 0 0 0 -0 -0 -0 -1 -1 -1 -1 -1 -2 -2 -2 -2 -1 -1 -1 -1 -2 -1 -1 -1 0 1 1 1 1 1 1 1
2 2 2 2 1 1 1 1 0 0 0 -0 -0 -0 -1 -1 -1 -1 -1 -1 -1 -1 -1 -2 -2 -2 -2 -2 -2 -2 -2 -2 -1 -1 -2 -1 -0 -0 1 1 0 0 0
2 2 1 1 1 1 1 0 -0 -0 -0 -0 -1 -1 -1 -1 -1 -2 -2 -2 -1 -1 -2 -2 -2 -2 -2 -2 -2 -2 -2 -2 -2 -2 -2 -2 -2 -1 -0 0 0 -0 -0
1 1 1 1 1 1 0 0 -0 -1 -1 -1 -1 -1 -1 -2 -2 -2 -2 -2 -2 -2 -2 -2 -2 -2 -2 -2 -2 -3 -3 -3 -3 -3 -3 -3 -3 -3 -3 -1 -1 -1 -1
Wind_Speed
1 2 2 3 4 4 3 3 3 3 3 4 4 3 3 3 3 3 3 3 4 4 5 5 5 6 6 6 5 7 8 9 10 9 8 8 8 9 10 9 9 8 8
2 2 2 2 3 4 3 3 3 2 2 2 3 3 3 3 3 3 3 3 3 4 5 5 6 6 6 6 6 5 5 7 8 10 10 9 9 10 11 11 10 10 10
3 2 1 1 3 4 4 3 3 2 2 2 3 3 2 2 2 2 3 3 3 4 4 5 6 7 7 7 7 7 6 6 7 9 10 10 10 10 10 11 11 10 10
4 3 2 1 3 4 3 1 1 2 2 2 3 3 2 2 2 2 2 2 2 3 3 4 5 6 6 7 7 7 8 8 7 8 9 10 10 11 11 12 12 13 13
4 3 2 3 4 3 2 2 2 1 2 3 3 2 2 2 2 2 2 2 3 3 3 4 4 5 6 7 8 8 8 8 9 8 9 10 11 12 12 13 13 13 13
4 3 2 3 3 1 2 2 2 2 1 2 3 3 3 2 2 1 1 2 3 3 3 4 4 4 5 6 8 9 9 10 10 10 9 10 10 11 13 13 14 14 15
3 3 2 2 2 1 1 2 2 2 2 2 1 2 2 2 1 1 1 1 2 3 4 4 4 4 4 6 7 8 10 11 11 11 11 10 10 11 12 13 14 14 15
4 2 2 1 1 1 2 2 2 1 1 3 1 1 2 2 2 2 1 1 2 3 3 4 4 4 5 5 6 8 9 11 12 12 12 12 12 13 12 12 13 13 13
3 3 2 1 2 1 1 1 1 1 1 2 1 0 0 2 3 2 1 1 2 2 2 3 4 4 5 5 6 7 9 11 12 13 13 13 13 13 13 13 13 13 13
3 2 2 2 1 1 2 2 1 1 0 1 1 1 1 1 2 3 2 2 3 3 3 4 4 4 5 5 6 8 10 11 12 13 13 13 14 14 14 15 13 13 13
2 2 2 2 1 1 2 2 2 1 0 1 1 1 1 2 2 3 5 4 3 3 3 3 3 3 4 5 6 8 10 11 13 14 14 13 13 14 13 13 13 12 12
2 2 2 1 1 1 2 2 2 1 1 1 1 1 2 2 2 3 4 5 5 4 4 3 3 3 3 5 7 9 10 11 13 13 13 13 13 13 13 12 13 12 11
2 2 1 1 1 1 1 1 1 1 1 1 1 2 2 2 2 3 4 5 6 4 3 2 3 3 4 6 7 10 10 12 13 13 14 13 13 13 12 12 12 12 11
2 2 1 1 1 1 1 1 1 1 1 1 2 2 2 2 2 3 3 4 6 5 3 4 2 3 4 6 8 10 9 11 12 12 13 13 13 12 13 12 12 12 11
2 1 1 1 1 1 1 1 1 2 1 1 2 2 2 2 3 3 3 3 4 6 6 4 3 3 5 6 8 9 9 11 12 12 12 12 12 12 12 12 11 12 10
2 1 1 1 1 1 1 1 1 1 1 2 1 2 2 3 3 2 2 3 3 5 6 4 4 5 6 7 9 9 9 11 11 12 12 12 12 12 12 12 11 11 10
2 2 2 2 2 2 1 1 1 1 1 2 2 2 3 3 3 3 3 3 3 4 7 6 4 5 5 6 8 8 9 8 9 12 12 12 12 12 12 12 11 12 11
3 3 2 2 2 2 2 2 2 2 2 2 3 3 4 4 4 3 3 3 4 4 5 8 6 5 6 6 6 7 8 8 8 11 12 12 13 12 12 12 12 12 11
3 2 2 3 3 3 2 3 3 2 3 3 3 4 4 4 4 4 4 4 4 4 4 6 7 5 5 5 6 6 7 6 8 10 11 12 12 13 13 13 12 11 11
3 3 3 3 3 3 3 3 3 3 3 4 4 4 5 4 5 5 4 5 5 5 5 6 7 6 5 4 4 5 7 5 6 7 9 10 12 13 13 13 12 11 11
4 3 3 3 3 3 3 3 3 3 3 4 4 4 5 6 7 6 5 5 5 5 5 6 6 6 6 5 5 5 7 8 7 5 5 6 7 7 8 11 11 11 11
3 3 3 4 4 4 6 6 4 3 4 4 5 5 5 6 8 9 10 9 7 6 6 6 6 7 8 6 6 6 6 7 6 3 5 7 5 6 6 7 10 11 11
3 4 4 4 5 6 7 7 7 3 4 4 5 5 5 5 7 6 8 10 9 11 10 7 8 8 8 7 7 7 7 7 8 6 5 7 5 6 6 9 11 11 10
4 4 5 5 5 6 8 8 7 4 3 4 5 5 5 6 6 6 6 6 6 7 8 7 7 8 8 8 7 7 8 8 8 5 4 6 4 5 6 7 9 9 9
4 4 4 5 5 6 8 8 7 3 3 5 5 5 5 5 9 10 6 7 7 7 9 10 11 11 12 13 10 5 5 6 7 5 2 3 3 5 5 4 6 7 9
5 4 5 5 5 6 8 8 7 3 4 4 4 5 7 7 9 10 6 6 8 7 6 7 7 8 8 8 10 5 4 5 5 4 2 2 3 3 4 3 3 5 7
Wind_Direction
49 21 25 17 8 5 2 354 348 342 342 339 332 327 316 312 307 307 307 309 304 302 300 297 295 294 289 284 276 261 252 247 243 239 232 232 235 239 237 236 240 241 244
48 11 10 13 2 353 346 340 330 325 321 326 324 326 313 308 307 300 301 307 313 311 306 303 301 297 294 293 286 279 266 255 250 247 242 239 239 241 240 238 239 241 245
42 34 42 14 354 352 351 349 344 341 333 332 321 327 330 324 324 317 305 303 309 313 307 307 304 304 300 294 292 289 284 274 261 254 248 242 241 241 238 240 240 243 247
43 39 25 357 353 2 4 348 349 340 332 329 323 325 332 338 340 333 333 326 318 320 318 317 311 310 307 305 300 297 290 283 275 260 253 247 243 244 242 243 244 244 245
37 45 31 2 4 14 12 358 6 347 327 333 329 330 326 319 314 346 6 11 8 4 355 345 335 327 325 320 313 307 299 295 283 273 263 257 252 246 246 247 246 246 246
31 44 41 13 13 28 12 5 349 352 322 323 329 334 319 306 313 322 326 18 22 14 11 360 351 342 339 333 323 316 310 304 300 287 278 271 263 258 253 253 251 248 247
23 41 36 17 14 24 10 359 351 355 359 349 357 344 328 315 328 317 337 360 16 12 4 359 353 348 338 333 329 326 321 314 307 302 291 284 277 269 263 258 257 253 249
11 30 39 10 4 3 14 10 15 5 358 10 11 348 331 333 2 341 339 348 346 15 4 355 355 352 342 337 332 331 325 317 312 306 302 293 288 278 271 268 263 261 253
2 10 12 11 358 358 343 340 1 36 341 345 13 51 332 291 318 308 329 344 345 339 333 347 348 340 336 335 331 326 322 317 312 310 302 299 292 288 279 273 271 265 261
351 2 1 359 358 354 345 331 357 354 225 312 330 334 261 258 287 304 304 327 332 322 314 323 327 336 335 329 321 318 317 314 312 309 306 301 298 290 286 280 277 275 270
344 353 359 359 341 338 331 338 344 341 300 269 279 298 303 297 264 269 288 300 308 297 293 295 304 323 330 327 319 316 312 311 311 310 308 307 304 301 294 290 283 282 275
330 355 2 342 324 325 321 324 324 328 319 299 287 275 266 268 278 274 281 292 297 295 292 289 296 310 324 328 318 317 312 311 312 311 310 310 311 310 303 297 294 289 286
311 319 332 324 322 317 318 318 323 317 310 288 279 285 285 279 277 276 280 290 295 295 284 284 287 313 330 329 319 318 314 312 310 309 309 310 311 312 310 305 301 295 291
274 289 289 299 314 326 331 336 326 306 309 292 302 298 291 291 285 275 273 288 298 295 291 280 289 301 334 329 319 318 317 312 310 311 312 312 312 311 311 305 302 297 292
252 275 275 283 302 311 316 323 319 318 328 319 308 308 307 303 301 294 287 275 273 289 292 289 295 295 320 320 318 323 317 313 314 313 311 310 310 309 309 304 303 300 292
229 240 266 275 294 301 298 308 316 312 325 316 310 321 316 305 299 295 287 282 269 269 281 287 286 298 309 313 314 317 311 309 308 308 306 306 306 306 307 307 305 303 294
226 230 239 246 257 265 274 268 280 288 296 317 324 314 304 302 300 298 293 290 284 272 277 290 290 301 302 301 308 313 309 307 307 305 302 302 303 303 304 305 302 302 295
223 224 224 231 245 252 248 245 265 272 272 286 293 295 294 301 298 298 296 292 288 279 276 289 297 301 296 299 299 302 310 310 305 302 299 299 300 302 302 303 299 297 292
226 222 216 229 240 244 241 244 247 255 259 266 273 277 284 289 291 292 292 289 288 288 278 282 292 296 297 304 309 304 300 296 302 304 300 298 300 302 301 301 300 298 295
223 227 228 235 241 243 241 244 248 254 262 270 271 271 275 275 277 282 286 284 290 291 286 285 290 296 295 301 305 307 308 304 303 305 300 302 300 300 299 299 299 297 294
228 225 228 241 246 244 242 242 246 250 257 270 275 274 273 275 279 281 285 284 288 290 294 294 293 299 300 310 309 306 304 309 299 288 298 298 297 294 295 295 296 293 292
234 225 227 235 243 250 256 255 255 245 252 261 272 279 281 281 285 288 289 288 283 282 285 288 291 293 294 292 294 299 304 309 305 298 308 298 287 284 286 289 293 294 292
231 230 232 233 243 251 258 261 261 252 250 255 264 275 286 288 293 290 289 291 287 281 278 277 278 282 290 291 293 292 289 287 283 287 299 289 287 285 284 293 294 292 291
234 235 238 237 245 256 261 264 267 257 249 257 261 262 271 281 283 286 284 287 285 285 285 280 270 276 283 289 281 281 284 288 283 273 267 277 290 287 292 291 287 288 294
244 240 241 236 242 257 262 262 266 249 257 265 264 262 269 274 284 290 290 285 288 289 293 289 285 287 293 297 300 298 297 299 297 291 258 262 287 301 297 279 282 297 304
245 245 248 241 239 249 261 261 262 242 253 267 272 268 272 282 290 293 287 283 285 288 292 297 299 301 301 301 302 292 281 284 292 292 275 280 286 321 312 292 288 304 306
Height
1520 1520 1520 1520 1520 1520 1519 1519 1519 1519 1519 1518 1518 1518 1518 1518 1518 1518 1518 1519 1519 1519 1520 1520 1520 1521 1521 1521 1522 1522 1522 1523 1523 1523 1523 1523 1524 1524 1524 1524 1524 1524 1524
1518 1518 1518 1517 1517 1517 1517 1516 1516 1516 1515 1515 1515 1515 1514 1514 1514 1514 1515 1515 1515 1515 1516 1516 1516 1517 1517 1517 1517 1518 1518 1518 1518 1519 1519 1519 1519 1519 1519 1520 1520 1520 1520
1515 1515 1515 1515 1514 1514 1514 1514 1513 1513 1512 1512 1512 1511 1511 1511 1511 1511 1511 1511 1511 1511 1511 1511 1512 1512 1512 1513 1513 1513 1513 1513 1513 1514 1514 1514 1514 1514 1514 1515 1515 1515 1516
1513 1512 1512 1512 1512 1511 1511 1511 1510 1509 1509 1508 1508 1508 1507 1507 1507 1507 1507 1507 1507 1507 1507 1507 1507 1507 1507 1508 1508 1508 1508 1508 1508 1508 1509 1509 1509 1509 1509 1510 1510 1510 1511
1510 1510 1510 1509 1509 1509 1508 1508 1507 1506 1506 1505 1504 1504 1504 1503 1503 1503 1503 1503 1503 1503 1503 1503 1503 1503 1503 1503 1503 1503 1503 1503 1503 1503 1503 1503 1504 1504 1504 1504 1505 1505 1505
1508 1508 1507 1507 1506 1506 1505 1505 1504 1503 1503 1502 1501 1500 1500 1500 1500 1499 1499 1499 1499 1499 1499 1498 1498 1498 1498 1498 1498 1498 1498 1498 1498 1498 1498 1498 1498 1498 1499 1499 1499 1499 1499
1505 1505 1505 1504 1504 1503 1502 1502 1501 1501 1500 1499 1498 1497 1496 1496 1496 1496 1496 1496 1496 1496 1495 1495 1494 1494 1493 1493 1493 1493 1493 1492 1492 1492 1492 1492 1492 1492 1492 1492 1493 1493 1493
1503 1503 1502 1501 1501 1500 1500 1499 1498 1497 1497 1497 1496 1494 1494 1494 1492 1493 1492 1493 1492 1492 1492 1491 1490 1490 1489 1489 1488 1488 1487 1487 1487 1487 1487 1486 1486 1486 1486 1486 1487 1487 1487
1501 1500 1499 1499 1498 1497 1496 1496 1496 1495 1494 1494 1494 1494 1493 1491 1490 1489 1489 1489 1489 1489 1488 1488 1487 1486 1485 1484 1484 1483 1482 1482 1482 1481 1481 1480 1480 1480 1480 1480 1481 1481 1481
1498 1497 1497 1496 1496 1495 1494 1494 1493 1492 1492 1491 1492 1492 1492 1491 1490 1486 1486 1486 1485 1485 1484 1483 1482 1482 1481 1480 1479 1478 1477 1476 1476 1475 1475 1474 1474 1474 1474 1475 1475 1475 1475
1496 1495 1494 1494 1494 1492 1491 1491 1490 1489 1489 1489 1488 1488 1488 1488 1487 1486 1482 1481 1481 1481 1480 1479 1478 1477 1476 1475 1474 1473 1472 1471 1470 1470 1469 1468 1468 1468 1468 1468 1468 1468 1469
1493 1492 1492 1492 1491 1490 1489 1488 1488 1487 1486 1486 1486 1485 1485 1484 1484 1483 1480 1477 1476 1476 1475 1475 1474 1472 1471 1470 1469 1467 1466 1465 1465 1464 1463 1463 1462 1462 1462 1461 1462 1462 1462
1490 1489 1489 1489 1488 1487 1486 1486 1485 1484 1484 1483 1483 1482 1482 1481 1481 1480 1478 1475 1472 1471 1471 1470 1469 1468 1467 1465 1464 1463 1461 1460 1459 1458 1458 1457 1456 1456 1456 1455 1455 1456 1455
1488 1487 1486 1485 1485 1484 1484 1483 1482 1481 1481 1480 1479 1479 1478 1478 1477 1476 1475 1473 1469 1466 1466 1465 1465 1464 1463 1461 1460 1458 1456 1455 1454 1453 1452 1451 1450 1449 1449 1449 1449 1449 1449
1485 1484 1483 1482 1481 1481 1481 1480 1479 1478 1477 1476 1476 1475 1475 1474 1473 1473 1471 1470 1469 1464 1460 1460 1460 1459 1458 1457 1455 1453 1452 1450 1449 1448 1446 1445 1444 1444 1443 1443 1442 1442 1442
1481 1481 1480 1479 1478 1478 1477 1476 1475 1475 1474 1473 1472 1472 1471 1470 1470 1469 1468 1466 1465 1463 1458 1456 1456 1455 1454 1452 1450 1449 1447 1445 1443 1442 1441 1440 1439 1438 1437 1436 1436 1435 1435
1478 1478 1477 1476 1475 1475 1474 1473 1472 1472 1471 1470 1469 1468 1468 1467 1466 1464 1463 1462 1461 1459 1455 1452 1452 1450 1449 1447 1445 1444 1442 1440 1438 1436 1435 1434 1433 1432 1431 1430 1430 1429 1428
1475 1474 1474 1473 1472 1471 1471 1470 1469 1468 1467 1466 1465 1465 1464 1463 1461 1460 1459 1458 1456 1455 1452 1448 1446 1445 1444 1442 1440 1438 1436 1434 1432 1431 1429 1428 1427 1425 1424 1423 1423 1422 1422
1471 1470 1470 1469 1468 1468 1467 1466 1465 1464 1463 1462 1462 1461 1460 1459 1457 1456 1455 1454 1452 1450 1448 1445 1442 1440 1439 1437 1435 1432 1431 1429 1427 1425 1423 1422 1421 1419 1418 1417 1416 1415 1415
1467 1466 1466 1465 1465 1464 1463 1462 1461 1460 1459 1459 1458 1457 1456 1455 1453 1452 1451 1449 1447 1446 1444 1441 1438 1435 1434 1432 1430 1427 1424 1423 1421 1419 1417 1416 1414 1413 1411 1410 1409 1408 1408
1463 1462 1461 1461 1460 1459 1459 1458 1457 1456 1455 1454 1454 1453 1452 1450 1449 1448 1447 1445 1443 1441 1439 1437 1434 1431 1429 1427 1425 1422 1419 1417 1414 1413 1411 1409 1408 1406 1405 1403 1402 1401 1401
1458 1458 1457 1457 1456 1455 1455 1454 1453 1452 1451 1450 1449 1448 1447 1446 1444 1443 1442 1440 1439 1437 1435 1433 1430 1427 1425 1423 1421 1418 1415 1412 1408 1407 1405 1402 1402 1399 1398 1396 1395 1394 1394
1454 1453 1453 1452 1452 1451 1450 1450 1449 1448 1447 1446 1445 1443 1442 1441 1440 1438 1437 1435 1434 1432 1431 1429 1426 1423 1421 1419 1416 1413 1411 1408 1404 1402 1399 1395 1395 1392 1391 1390 1389 1388 1387
1449 1449 1448 1447 1447 1447 1446 1445 1444 1443 1442 1441 1440 1439 1437 1436 1434 1433 1431 1430 1428 1427 1425 1423 1421 1418 1416 1414 1412 1409 1406 1402 1399 1397 1394 1390 1387 1386 1384 1384 1383 1382 1381
1444 1444 1443 1443 1442 1441 1441 1440 1439 1438 1437 1436 1435 1434 1432 1431 1430 1428 1426 1424 1422 1421 1420 1418 1415 1413 1411 1409 1406 1404 1401 1397 1393 1391 1390 1386 1382 1379 1377 1377 1377 1377 1376
1440 1439 1438 1438 1437 1436 1436 1435 1435 1433 1432 1431 1430 1429 1428 1426 1425 1423 1422 1419 1417 1415 1414 1412 1410 1407 1405 1403 1401 1399 1396 1393 1390 1386 1384 1383 1379 1376 1371 1370 1371 1371 1370